If you wish to contribute or participate in the discussions about articles you are invited to join SKYbrary as a registered user

 Actions

Treviso-Sant'Angelo Airport

From SKYbrary Wiki

LIPH
Airport
ICAO: LIPH – IATA: TSF
Summary
Name Treviso-Sant'Angelo Airport
Region Europe
Territory Italy IT.gif
Location Treviso, Veneto
Serving Treviso
Elevation 17.983 m
59 ft
59 ft17.983 m
Type large airport
Coordinates 45° 38' 54.24" N, 12° 11' 39.92" E
Runways
Designator Length Width Surface ROPS
7/25 2420 m7,939.633 ft
44 m144.357 ft
ASP yes/yes


METAR
Observation LIPH 210850Z 04005KT 010V070 CAVOK 08/02 Q1024
Station Treviso / S. Angelo
Date/Time 21 February 2020 08:50:00
Wind direction 40°
Wind speed 05 kts
Lowest cloud amount clouds and visibility OK
Temperature 8°C
Dew point 2°C
Humidity 65%
QNH 1024 hPa
Weather condition n/a

Maps

Terrain

Loading map...

Airport Layout

Loading map...


Accidents & Serious Incidents at or in vicinity of LIPH

None on SKYbrary